Weather History for Hillsdale, MI

Change the Weather History Date:

Wednesday, January 29, 2014

  Actual Average Record
Temperature  
Mean Temperature 6 °F -  
Max Temperature 15 °F 30 °F 56 °F (2013)
Min Temperature -3 °F 13 °F -11 °F (1977)
Degree Days  
Heating Degree Days 59    
Moisture  
Dew Point -5 °F    
Average Humidity 60    
Maximum Humidity 72    
Minimum Humidity 42    
Precipitation  
Precipitation 0.00 in - - ()
Sea Level Pressure  
Sea Level Pressure 30.10 in    
Wind  
Wind Speed 11 mph (SW)    
Max Wind Speed 21 mph    
Max Gust Speed 26 mph    
Visibility 10 miles    
Events      
Averages and records for this station are not official NWS values.
T = Trace of Precipitation, MM = Missing Value Source: NWS Daily Summary

Daily Weather History Graph

Daily Weather History Graph

Search for Another Location

Airport:

Trip Planner

Search our weather history database for the weather conditions in past years. The results will help you decide how hot, cold, wet, or windy it might be!

Date:

Astronomy

Jan. 29, 2014 Rise Set
Actual Time 7:53 AM EST 5:49 PM EST
Civil Twilight 7:24 AM EST 6:19 PM EST
Nautical Twilight 6:50 AM EST 6:52 PM EST
Astronomical Twilight 6:17 AM EST 7:25 PM EST
Moon 6:29 AM EST (1/29) 4:48 PM EST (1/29)
Length of Visible Light 10h 55m
Length of Day
9h 55m
Waning Crescent, 2% of the Moon is Illuminated
Jan 29
Waning Crescent
Jan 30
New
Feb 6
First Quarter
Feb 14
Full
Feb 22
Last Quarter

Hourly Weather History & Observations

Time (EST) Temp. Windchill Dew Point Humidity Pressure Visibility Wind Dir Wind Speed Gust Speed Precip Events Conditions
12:15 AM -2.2 °F -18.0 °F -9.9 °F 70% 30.13 in 10.0 mi WSW 9.2 mph - N/A   Clear
12:35 AM -1.8 °F -18.5 °F -9.8 °F 69% 30.12 in 10.0 mi WSW 10.4 mph - N/A   Clear
12:54 AM -1.7 °F -18.3 °F -9.8 °F 68% 30.12 in 10.0 mi SW 10.4 mph - N/A   Clear
1:15 AM -1.5 °F -19.0 °F -9.6 °F 69% 30.12 in 10.0 mi WSW 11.5 mph - N/A   Clear
1:35 AM -1.3 °F -18.7 °F -9.6 °F 68% 30.11 in 10.0 mi WSW 11.5 mph 19.6 mph N/A   Clear
1:55 AM -0.9 °F -16.4 °F -9.2 °F 68% 30.10 in 10.0 mi WSW 9.2 mph - N/A   Clear
2:15 AM -0.9 °F -15.3 °F -9.2 °F 68% 30.10 in 10.0 mi SW 8.1 mph - N/A   Clear
2:34 AM -2.6 °F -18.4 °F -10.5 °F 69% 30.10 in 10.0 mi SW 9.2 mph - N/A   Clear
2:55 AM -3.3 °F -18.2 °F -10.5 °F 71% 30.09 in 10.0 mi SW 8.1 mph - N/A   Clear
3:15 AM -3.1 °F -19.1 °F -10.1 °F 72% 30.10 in 10.0 mi WSW 9.2 mph - N/A   Clear
3:35 AM -1.7 °F -18.3 °F -8.9 °F 71% 30.09 in 10.0 mi WSW 10.4 mph 16.1 mph N/A   Clear
3:55 AM -0.9 °F -18.3 °F -8.9 °F 69% 30.09 in 10.0 mi WSW 11.5 mph 17.3 mph N/A   Clear
4:14 AM -0.9 °F -17.4 °F -8.9 °F 69% 30.09 in 10.0 mi WSW 10.4 mph - N/A   Clear
4:35 AM -0.6 °F -17.8 °F -8.5 °F 69% 30.08 in 10.0 mi WSW 11.5 mph 16.1 mph N/A   Mostly Cloudy
4:55 AM -0.0 °F -16.3 °F -8.3 °F 68% 30.08 in 10.0 mi WSW 10.4 mph 19.6 mph N/A   Mostly Cloudy
5:14 AM 0.3 °F -17.5 °F -8.0 °F 68% 30.07 in 10.0 mi WSW 12.7 mph 16.1 mph N/A   Scattered Clouds
5:35 AM 0.7 °F -15.4 °F -7.8 °F 68% 30.07 in 10.0 mi WSW 10.4 mph 17.3 mph N/A   Clear
5:54 AM 0.9 °F -16.0 °F -7.4 °F 68% 30.07 in 10.0 mi WSW 11.5 mph 17.3 mph N/A   Scattered Clouds
6:15 AM 0.9 °F -17.6 °F -7.2 °F 69% 30.07 in 10.0 mi WSW 13.8 mph 18.4 mph N/A   Scattered Clouds
6:35 AM 0.9 °F -15.1 °F -7.2 °F 69% 30.07 in 10.0 mi WSW 10.4 mph - N/A   Clear
6:54 AM 0.9 °F -15.1 °F -7.4 °F 68% 30.07 in 10.0 mi WSW 10.4 mph 18.4 mph N/A   Clear
7:15 AM 1.2 °F -13.7 °F -7.2 °F 68% 30.07 in 10.0 mi WSW 9.2 mph 16.1 mph N/A   Clear
7:35 AM 1.4 °F -16.1 °F -7.2 °F 67% 30.08 in 10.0 mi WSW 12.7 mph 18.4 mph N/A   Clear
7:54 AM 1.8 °F -15.7 °F -7.2 °F 66% 30.07 in 10.0 mi WSW 12.7 mph - N/A   Clear
8:15 AM 1.9 °F -14.7 °F -7.2 °F 65% 30.07 in 10.0 mi WSW 11.5 mph 18.4 mph N/A   Clear
8:35 AM 2.8 °F -13.5 °F -7.1 °F 63% 30.08 in 10.0 mi West 11.5 mph 17.3 mph N/A   Clear
8:54 AM 4.6 °F -12.8 °F -6.3 °F 61% 30.08 in 10.0 mi WSW 13.8 mph 21.9 mph N/A   Clear
9:15 AM 5.9 °F -11.2 °F -5.6 °F 59% 30.08 in 10.0 mi West 13.8 mph 23.0 mph N/A   Clear
9:35 AM 6.4 °F -12.3 °F -5.4 °F 58% 30.08 in 10.0 mi West 17.3 mph 24.2 mph N/A   Clear
9:54 AM 7.3 °F -12.6 °F -5.1 °F 57% 30.09 in 10.0 mi WSW 20.7 mph 26.5 mph N/A   Clear
10:15 AM 8.1 °F -9.6 °F -4.7 °F 56% 30.09 in 10.0 mi WSW 16.1 mph 25.3 mph N/A   Clear
10:35 AM 9.0 °F -10.0 °F -4.2 °F 55% 30.10 in 10.0 mi West 19.6 mph 25.3 mph N/A   Clear
10:55 AM 9.1 °F -8.8 °F -4.0 °F 55% 30.10 in 10.0 mi West 17.3 mph 25.3 mph N/A   Clear
11:15 AM 9.3 °F -9.1 °F -3.8 °F 55% 30.10 in 10.0 mi WSW 18.4 mph 23.0 mph N/A   Clear
11:34 AM 9.3 °F -8.6 °F -3.6 °F 56% 30.11 in 10.0 mi WSW 17.3 mph 26.5 mph N/A   Clear
11:55 AM 10.2 °F -5.0 °F -3.5 °F 54% 30.11 in 10.0 mi WSW 12.7 mph 18.4 mph N/A   Clear
12:15 PM 10.4 °F -6.0 °F -3.3 °F 54% 30.11 in 10.0 mi West 15.0 mph 20.7 mph N/A   Clear
12:34 PM 10.9 °F -4.1 °F -3.1 °F 53% 30.10 in 10.0 mi WSW 12.7 mph 20.7 mph N/A   Clear
12:55 PM 11.7 °F -7.0 °F -3.3 °F 51% 30.09 in 10.0 mi WSW 20.7 mph 24.2 mph N/A   Clear
1:15 PM 12.4 °F -4.1 °F -3.3 °F 50% 30.09 in 10.0 mi West 16.1 mph 23.0 mph N/A   Clear
1:34 PM 12.9 °F -2.2 °F -3.3 °F 49% 30.09 in 10.0 mi West 13.8 mph 21.9 mph N/A   Clear
1:55 PM 13.8 °F -1.7 °F -3.3 °F 47% 30.09 in 10.0 mi West 15.0 mph 21.9 mph N/A   Clear
2:15 PM 14.2 °F -0.6 °F -3.5 °F 46% 30.09 in 10.0 mi West 13.8 mph 21.9 mph N/A   Clear
2:34 PM 14.4 °F -1.5 °F -3.5 °F 45% 30.09 in 10.0 mi West 16.1 mph 21.9 mph N/A   Clear
2:55 PM 14.7 °F -1.1 °F -4.5 °F 42% 30.09 in 10.0 mi West 16.1 mph 23.0 mph N/A   Clear
3:15 PM 15.3 °F -0.4 °F -4.4 °F 42% 30.09 in 10.0 mi West 16.1 mph 23.0 mph N/A   Clear
3:35 PM 15.4 °F 3.0 °F -3.5 °F 43% 30.09 in 10.0 mi SW 10.4 mph 20.7 mph N/A   Clear
3:55 PM 15.4 °F 0.4 °F -3.5 °F 43% 30.10 in 10.0 mi West 15.0 mph 23.0 mph N/A   Clear
4:14 PM 15.3 °F 1.4 °F -3.6 °F 43% 30.11 in 10.0 mi WSW 12.7 mph 24.2 mph N/A   Clear
4:35 PM 15.3 °F 0.2 °F -3.8 °F 43% 30.12 in 10.0 mi WSW 15.0 mph 19.6 mph N/A   Clear
4:54 PM 15.1 °F -0.1 °F -3.5 °F 44% 30.11 in 10.0 mi WSW 15.0 mph 21.9 mph N/A   Clear
5:15 PM 14.5 °F 1.9 °F -2.4 °F 47% 30.11 in 10.0 mi SW 10.4 mph 18.4 mph N/A   Clear
5:34 PM 14.0 °F 2.0 °F -2.0 °F 49% 30.12 in 10.0 mi WSW 9.2 mph - N/A   Clear
5:55 PM 13.6 °F 0.7 °F -2.2 °F 49% 30.13 in 10.0 mi WSW 10.4 mph - N/A   Clear
6:15 PM 12.9 °F 0.7 °F -2.4 °F 51% 30.13 in 10.0 mi WSW 9.2 mph - N/A   Clear
6:34 PM 12.0 °F 1.5 °F -2.6 °F 52% 30.13 in 10.0 mi SW 6.9 mph - N/A   Clear
6:55 PM 11.7 °F 1.1 °F -2.6 °F 53% 30.13 in 10.0 mi SSW 6.9 mph - N/A   Clear
7:15 PM 10.9 °F -1.8 °F -2.4 °F 55% 30.12 in 10.0 mi SSW 9.2 mph - N/A   Clear
7:34 PM 10.8 °F 0.0 °F -1.8 °F 57% 30.12 in 10.0 mi SSW 6.9 mph - N/A   Clear
7:55 PM 10.4 °F 0.8 °F -1.5 °F 59% 30.13 in 10.0 mi South 5.8 mph - N/A   Clear
8:15 PM 9.9 °F 1.6 °F -1.7 °F 60% 30.13 in 10.0 mi South 4.6 mph - N/A   Clear
8:34 PM 9.1 °F 0.8 °F -1.7 °F 62% 30.14 in 10.0 mi South 4.6 mph - N/A   Clear
8:55 PM 9.1 °F 0.8 °F -1.5 °F 62% 30.13 in 10.0 mi South 4.6 mph - N/A   Clear
9:14 PM 7.9 °F -2.2 °F -2.0 °F 64% 30.12 in 10.0 mi South 5.8 mph - N/A   Clear
9:35 PM 7.3 °F -4.1 °F -2.2 °F 65% 30.12 in 10.0 mi South 6.9 mph - N/A   Clear
9:55 PM 7.5 °F -3.9 °F -1.8 °F 66% 30.11 in 10.0 mi South 6.9 mph - N/A   Clear
10:14 PM 7.7 °F -4.8 °F -1.8 °F 65% 30.11 in 10.0 mi South 8.1 mph - N/A   Clear
10:35 PM 7.9 °F -4.6 °F -1.3 °F 66% 30.11 in 10.0 mi South 8.1 mph - N/A   Clear
10:55 PM 8.1 °F -4.3 °F -0.6 °F 68% 30.10 in 10.0 mi South 8.1 mph - N/A   Clear
11:14 PM 8.1 °F -4.3 °F -0.2 °F 69% 30.10 in 10.0 mi South 8.1 mph - N/A   Clear
11:35 PM 7.7 °F -5.8 °F -0.0 °F 71% 30.09 in 10.0 mi South 9.2 mph - N/A   Clear
11:55 PM 7.9 °F -3.5 °F 0.1 °F 71% 30.09 in 10.0 mi South 6.9 mph - N/A   Clear